Lid_Strength_Index
10 12 13 12 11 11 11 12 11 10 8 8 9 10 8 7 7 8 7 7 6 5 4 3 2 2 2 2 1 1 1 1 1 2 2 2 2 1 0 0 -0 -0 -0 -1
12 13 11 9 10 11 11 12 11 10 8 9 10 9 8 8 8 7 7 7 6 5 5 4 3 3 2 2 2 2 1 2 1 1 2 1 1 1 0 0 0 -0 -0 -0
13 11 8 9 11 11 12 13 12 11 10 9 11 12 10 9 7 6 6 6 5 5 5 5 4 3 3 3 2 2 1 1 1 1 2 2 1 1 1 1 0 -0 -0 -0
11 9 9 11 11 11 13 10 10 11 13 15 12 16 13 11 9 7 7 6 6 5 5 4 4 4 3 3 2 1 1 1 1 1 2 2 2 3 2 1 1 0 -0 -0
10 10 11 11 11 10 11 9 10 10 14 15 13 15 13 11 11 9 8 6 6 5 5 5 4 3 3 2 2 1 1 1 1 1 1 2 2 2 2 1 1 1 0 0
10 10 10 11 9 9 9 10 11 13 15 16 15 14 14 12 10 9 7 7 6 5 5 4 3 3 3 2 2 2 2 2 1 1 1 2 2 3 3 2 2 1 1 1
12 11 11 10 12 11 11 14 16 16 17 16 16 14 12 10 9 8 8 7 6 5 5 5 4 4 3 3 2 2 2 2 1 1 1 1 1 2 2 2 2 1 1 1
15 14 11 10 11 12 13 13 16 18 18 16 15 16 12 9 7 7 7 6 6 6 5 5 4 4 3 3 2 2 2 2 2 1 1 1 1 2 2 2 1 1 1 1
15 13 9 9 10 11 13 14 13 16 17 16 15 12 11 8 8 8 8 7 7 6 5 5 4 3 3 3 3 2 2 3 2 1 1 1 1 1 2 1 1 1 1 1
13 14 11 9 9 9 11 11 14 15 17 18 15 14 13 12 10 9 9 8 7 6 5 4 4 4 3 3 2 2 2 2 2 1 1 1 1 1 1 1 2 1 1 1
12 12 12 11 12 13 13 14 15 15 15 17 18 15 12 11 9 9 8 7 7 6 5 5 4 3 3 3 2 2 2 2 2 1 1 1 1 1 1 1 1 1 1 0
11 13 14 13 11 11 13 14 15 16 16 16 16 14 9 9 8 8 8 7 6 5 5 5 4 4 3 3 3 3 2 2 2 1 1 1 1 1 1 1 1 1 1 0
11 14 15 14 13 12 13 13 15 15 15 16 17 15 8 9 8 8 7 7 6 6 5 5 5 4 4 3 3 3 4 2 2 1 1 1 1 1 2 2 2 1 1 1
9 15 14 15 15 14 14 13 14 14 15 15 14 13 11 10 9 7 7 7 6 6 5 5 5 4 4 4 4 3 3 3 1 2 2 2 2 1 1 2 2 2 1 1
12 14 14 15 13 13 12 12 12 13 13 13 12 13 11 10 9 8 7 6 6 6 6 5 5 5 4 3 3 2 2 3 1 2 2 2 1 1 2 2 2 2 2 1
14 14 14 14 12 12 12 11 12 11 11 11 12 13 9 8 7 8 8 7 7 6 5 5 4 4 4 3 3 3 2 2 3 2 2 2 1 2 1 2 2 2 2 2
13 14 15 16 13 12 14 12 11 11 11 11 14 11 8 10 9 9 8 7 7 7 6 6 5 5 5 4 3 3 2 1 2 2 2 2 2 2 2 1 1 2 2 2
14 15 15 16 14 17 13 9 9 10 10 9 9 10 9 8 8 7 7 7 7 6 6 6 5 6 5 5 5 3 2 2 2 2 2 2 2 2 2 2 2 1 2 2
13 14 15 16 16 14 11 10 10 11 11 8 9 9 8 8 7 7 6 6 5 5 5 5 4 4 4 5 5 4 3 2 2 2 2 2 2 2 2 2 2 2 2 2
12 14 14 16 16 17 12 8 7 8 14 8 8 8 9 9 11 9 5 5 5 4 4 4 3 3 4 4 4 4 3 3 3 2 2 1 1 2 2 2 2 2 1 2
14 14 14 15 15 13 9 7 7 14 13 7 7 7 7 9 8 6 5 5 4 4 4 4 4 4 4 3 4 4 3 3 2 1 1 1 1 2 1 1 1 2 2 2
14 15 15 15 16 17 7 8 12 9 8 7 6 6 7 6 5 5 4 4 4 4 4 3 4 4 3 3 3 3 3 2 1 1 2 2 1 1 1 1 2 2 2 2
14 12 13 12 12 9 7 8 6 6 7 6 6 5 6 6 6 5 5 5 4 4 4 3 4 4 3 3 3 3 3 2 2 2 2 2 2 1 1 2 2 2 2 3
11 10 11 11 10 8 7 6 5 5 6 5 5 5 5 6 5 5 5 4 4 4 4 4 4 4 4 3 3 3 2 1 2 2 2 2 2 2 2 2 2 2 2 3
11 10 10 11 9 8 7 6 5 5 5 5 5 5 5 5 5 5 5 4 4 4 3 3 3 4 4 3 3 3 2 1 2 2 2 2 2 2 2 2 2 3 1 2
9 10 11 11 8 8 7 6 5 6 6 5 6 6 5 5 5 4 5 4 4 4 4 4 3 3 4 3 3 2 2 1 2 3 2 2 2 2 2 2 2 7 8 10